timestamp,wind_dir_avg,wind_spd_max_dir,wind_spd_avg,wind_spd_gust,battery_voltage,lat,long
2019-02-20 00:00:00+00:00,327.0,330.0,12.89,14.91,,47.59359,-54.27349
2019-02-20 00:10:00+00:00,338.0,343.0,15.33,17.04,,47.59359,-54.27349
2019-02-20 00:20:00+00:00,336.0,329.0,14.27,17.41,,47.59359,-54.27349
2019-02-20 00:30:00+00:00,333.0,337.0,13.39,15.04,,47.59359,-54.27349
2019-02-20 00:40:00+00:00,342.0,344.0,12.93,14.66,,47.59359,-54.27349
2019-02-20 00:50:00+00:00,337.0,338.0,10.49,12.47,,47.59359,-54.27349
2019-02-20 01:00:00+00:00,335.0,330.0,11.6,13.66,,47.59359,-54.27349
2019-02-20 01:10:00+00:00,340.0,346.0,10.96,12.52,,47.59359,-54.27349
2019-02-20 01:20:00+00:00,332.0,332.0,8.06,10.28,,47.59359,-54.27349
2019-02-20 01:30:00+00:00,330.0,329.0,9.13,11.42,,47.59359,-54.27349
2019-02-20 01:40:00+00:00,330.0,330.0,7.84,9.92,,47.59359,-54.27349
2019-02-20 01:50:00+00:00,325.0,339.0,7.08,9.14,,47.59359,-54.27349
2019-02-20 02:00:00+00:00,311.0,311.0,10.19,11.95,,47.59359,-54.27349
2019-02-20 02:10:00+00:00,326.0,319.0,7.67,11.19,,47.59359,-54.27349
2019-02-20 02:20:00+00:00,339.0,344.0,10.0,13.51,,47.59359,-54.27349
2019-02-20 02:30:00+00:00,340.0,343.0,11.56,14.05,,47.59359,-54.27349
2019-02-20 02:40:00+00:00,340.0,340.0,10.94,12.21,,47.59359,-54.27349
2019-02-20 02:50:00+00:00,329.0,325.0,10.65,12.66,,47.59359,-54.27349
2019-02-20 03:00:00+00:00,326.0,338.0,5.63,6.83,,47.59359,-54.27349
2019-02-20 03:10:00+00:00,321.0,310.0,5.28,6.94,,47.59359,-54.27349
2019-02-20 03:20:00+00:00,322.0,324.0,4.85,6.21,,47.59359,-54.27349
2019-02-20 03:30:00+00:00,323.0,325.0,6.08,7.06,,47.59359,-54.27349
2019-02-20 03:40:00+00:00,324.0,320.0,6.07,6.9,,47.59359,-54.27349
2019-02-20 03:50:00+00:00,328.0,333.0,10.57,14.24,,47.59359,-54.27349
2019-02-20 04:00:00+00:00,328.0,329.0,9.42,12.58,,47.59359,-54.27349
2019-02-20 04:10:00+00:00,322.0,316.0,9.73,12.37,,47.59359,-54.27349
2019-02-20 04:20:00+00:00,319.0,323.0,7.71,12.74,,47.59359,-54.27349
2019-02-20 04:30:00+00:00,314.0,325.0,6.96,9.26,,47.59359,-54.27349
2019-02-20 04:40:00+00:00,317.0,332.0,6.59,9.54,,47.59359,-54.27349
2019-02-20 04:50:00+00:00,320.0,329.0,7.01,9.51,,47.59359,-54.27349
2019-02-20 05:00:00+00:00,323.0,328.0,9.2,11.77,,47.59359,-54.27349
2019-02-20 05:10:00+00:00,321.0,330.0,7.6,10.75,,47.59359,-54.27349
2019-02-20 05:20:00+00:00,316.0,326.0,7.48,11.0,,47.59359,-54.27349
2019-02-20 05:30:00+00:00,329.0,327.0,6.96,10.31,,47.59359,-54.27349
2019-02-20 05:40:00+00:00,321.0,328.0,8.84,11.26,,47.59359,-54.27349
2019-02-20 05:50:00+00:00,325.0,326.0,10.38,12.45,,47.59359,-54.27349
2019-02-20 06:00:00+00:00,317.0,320.0,6.54,9.43,,47.59359,-54.27349
2019-02-20 06:10:00+00:00,317.0,324.0,8.36,10.91,,47.59359,-54.27349
2019-02-20 06:20:00+00:00,319.0,326.0,9.95,11.47,,47.59359,-54.27349
2019-02-20 06:30:00+00:00,319.0,318.0,7.66,9.48,,47.59359,-54.27349
2019-02-20 06:40:00+00:00,314.0,320.0,8.16,10.18,,47.59359,-54.27349
2019-02-20 06:50:00+00:00,318.0,326.0,8.78,14.11,,47.59359,-54.27349
2019-02-20 07:00:00+00:00,325.0,325.0,9.2,12.21,,47.59359,-54.27349
2019-02-20 07:10:00+00:00,316.0,325.0,8.94,11.74,,47.59359,-54.27349
2019-02-20 07:20:00+00:00,317.0,327.0,9.61,12.01,,47.59359,-54.27349
2019-02-20 07:30:00+00:00,321.0,324.0,10.42,13.35,,47.59359,-54.27349
2019-02-20 07:40:00+00:00,320.0,316.0,8.31,10.44,,47.59359,-54.27349
2019-02-20 07:50:00+00:00,323.0,326.0,12.35,15.22,,47.59359,-54.27349
2019-02-20 08:00:00+00:00,314.0,322.0,8.36,10.32,,47.59359,-54.27349
2019-02-20 08:10:00+00:00,313.0,307.0,8.87,10.26,,47.59359,-54.27349
2019-02-20 08:20:00+00:00,323.0,325.0,11.87,15.9,,47.59359,-54.27349
2019-02-20 08:30:00+00:00,327.0,324.0,12.34,15.02,,47.59359,-54.27349
2019-02-20 08:40:00+00:00,337.0,338.0,12.16,14.2,,47.59359,-54.27349
2019-02-20 08:50:00+00:00,322.0,321.0,10.67,13.28,,47.59359,-54.27349
2019-02-20 09:00:00+00:00,315.0,312.0,9.0,10.32,,47.59359,-54.27349
2019-02-20 09:10:00+00:00,327.0,327.0,9.94,12.76,,47.59359,-54.27349
2019-02-20 09:20:00+00:00,329.0,340.0,7.84,9.72,,47.59359,-54.27349
2019-02-20 09:30:00+00:00,323.0,326.0,10.67,14.54,,47.59359,-54.27349
2019-02-20 09:40:00+00:00,319.0,328.0,10.64,14.76,,47.59359,-54.27349
2019-02-20 09:50:00+00:00,319.0,320.0,10.65,13.9,,47.59359,-54.27349
2019-02-20 10:00:00+00:00,319.0,326.0,7.85,9.21,,47.59359,-54.27349
2019-02-20 10:10:00+00:00,330.0,328.0,9.56,12.45,,47.59359,-54.27349
2019-02-20 10:20:00+00:00,320.0,314.0,8.59,12.23,,47.59359,-54.27349
2019-02-20 10:30:00+00:00,336.0,336.0,8.16,9.92,,47.59359,-54.27349
2019-02-20 10:40:00+00:00,319.0,325.0,8.81,10.43,,47.59359,-54.27349
2019-02-20 10:50:00+00:00,318.0,313.0,8.98,11.89,,47.59359,-54.27349
2019-02-20 11:00:00+00:00,318.0,314.0,9.12,12.7,,47.59359,-54.27349
2019-02-20 11:10:00+00:00,324.0,314.0,8.04,9.74,,47.59359,-54.27349
2019-02-20 11:20:00+00:00,310.0,309.0,10.48,13.18,,47.59359,-54.27349
2019-02-20 11:30:00+00:00,314.0,305.0,8.58,10.42,,47.59359,-54.27349
2019-02-20 11:40:00+00:00,317.0,324.0,11.15,14.47,,47.59359,-54.27349
2019-02-20 11:50:00+00:00,319.0,319.0,9.92,13.8,,47.59359,-54.27349
2019-02-20 12:00:00+00:00,321.0,323.0,12.0,15.64,,47.59359,-54.27349
2019-02-20 12:10:00+00:00,321.0,315.0,11.23,14.03,,47.59359,-54.27349
2019-02-20 12:20:00+00:00,321.0,324.0,11.21,14.29,,47.59359,-54.27349
2019-02-20 12:30:00+00:00,322.0,336.0,9.33,12.31,,47.59359,-54.27349
2019-02-20 12:40:00+00:00,324.0,320.0,10.8,14.92,,47.59359,-54.27349
2019-02-20 12:50:00+00:00,317.0,326.0,11.86,14.93,,47.59359,-54.27349
2019-02-20 13:00:00+00:00,318.0,325.0,13.95,16.86,,47.59359,-54.27349
2019-02-20 13:10:00+00:00,323.0,321.0,11.01,14.47,,47.59359,-54.27349
2019-02-20 13:20:00+00:00,320.0,325.0,12.55,15.8,,47.59359,-54.27349
2019-02-20 13:30:00+00:00,319.0,317.0,12.5,14.18,,47.59359,-54.27349
2019-02-20 13:40:00+00:00,322.0,323.0,14.49,16.95,,47.59359,-54.27349
2019-02-20 13:50:00+00:00,325.0,325.0,14.45,18.48,,47.59359,-54.27349
2019-02-20 14:00:00+00:00,321.0,319.0,12.85,15.62,,47.59359,-54.27349
2019-02-20 14:10:00+00:00,328.0,330.0,12.97,16.42,,47.59359,-54.27349
2019-02-20 14:20:00+00:00,322.0,320.0,12.84,16.91,,47.59359,-54.27349
2019-02-20 14:30:00+00:00,334.0,329.0,11.54,14.55,,47.59359,-54.27349
2019-02-20 14:40:00+00:00,322.0,346.0,11.16,17.45,,47.59359,-54.27349
2019-02-20 14:50:00+00:00,331.0,339.0,10.54,13.18,,47.59359,-54.27349
2019-02-20 15:00:00+00:00,326.0,327.0,11.61,14.78,,47.59359,-54.27349
2019-02-20 15:10:00+00:00,319.0,322.0,12.47,15.16,,47.59359,-54.27349
2019-02-20 15:20:00+00:00,322.0,326.0,12.64,16.28,,47.59359,-54.27349
2019-02-20 15:30:00+00:00,336.0,340.0,10.12,12.08,,47.59359,-54.27349
2019-02-20 15:40:00+00:00,322.0,341.0,9.31,13.36,,47.59359,-54.27349
2019-02-20 15:50:00+00:00,318.0,319.0,9.63,12.77,,47.59359,-54.27349
2019-02-20 16:00:00+00:00,321.0,319.0,10.95,13.53,,47.59359,-54.27349
2019-02-20 16:10:00+00:00,320.0,323.0,12.93,16.03,,47.59359,-54.27349
2019-02-20 16:20:00+00:00,312.0,307.0,12.51,16.54,,47.59359,-54.27349
2019-02-20 16:30:00+00:00,318.0,324.0,12.43,15.87,,47.59359,-54.27349
2019-02-20 16:40:00+00:00,323.0,321.0,12.81,15.47,,47.59359,-54.27349
2019-02-20 16:50:00+00:00,319.0,318.0,12.94,16.91,,47.59359,-54.27349
2019-02-20 17:00:00+00:00,318.0,323.0,10.85,14.96,,47.59359,-54.27349
2019-02-20 17:10:00+00:00,320.0,325.0,13.42,15.63,,47.59359,-54.27349
2019-02-20 17:20:00+00:00,315.0,315.0,11.62,15.73,,47.59359,-54.27349
2019-02-20 17:30:00+00:00,319.0,317.0,12.39,15.79,,47.59359,-54.27349
2019-02-20 17:40:00+00:00,316.0,318.0,12.58,16.8,,47.59359,-54.27349
2019-02-20 17:50:00+00:00,318.0,325.0,12.99,15.49,,47.59359,-54.27349
2019-02-20 18:00:00+00:00,319.0,319.0,13.47,16.63,,47.59359,-54.27349
2019-02-20 18:10:00+00:00,313.0,318.0,11.99,15.52,,47.59359,-54.27349
2019-02-20 18:20:00+00:00,320.0,327.0,10.21,16.9,,47.59359,-54.27349
2019-02-20 18:30:00+00:00,325.0,329.0,13.35,16.58,,47.59359,-54.27349
2019-02-20 18:40:00+00:00,327.0,327.0,12.45,14.87,,47.59359,-54.27349
2019-02-20 18:50:00+00:00,333.0,339.0,11.81,14.83,,47.59359,-54.27349
2019-02-20 19:00:00+00:00,319.0,320.0,10.93,14.21,,47.59359,-54.27349
2019-02-20 19:10:00+00:00,336.0,342.0,14.07,16.2,,47.59359,-54.27349
2019-02-20 19:20:00+00:00,332.0,342.0,10.04,12.05,,47.59359,-54.27349
2019-02-20 19:30:00+00:00,332.0,322.0,11.4,13.11,,47.59359,-54.27349
2019-02-20 19:40:00+00:00,326.0,334.0,9.3,12.0,,47.59359,-54.27349
2019-02-20 19:50:00+00:00,327.0,330.0,10.88,13.56,,47.59359,-54.27349
2019-02-20 20:00:00+00:00,323.0,326.0,13.2,15.91,,47.59359,-54.27349
2019-02-20 20:10:00+00:00,325.0,323.0,11.35,14.51,,47.59359,-54.27349
2019-02-20 20:20:00+00:00,317.0,319.0,11.3,14.38,,47.59359,-54.27349
2019-02-20 20:30:00+00:00,335.0,338.0,11.32,14.31,,47.59359,-54.27349
2019-02-20 20:40:00+00:00,338.0,339.0,14.88,17.76,,47.59359,-54.27349
2019-02-20 20:50:00+00:00,342.0,333.0,12.88,16.05,,47.59359,-54.27349
2019-02-20 21:00:00+00:00,341.0,341.0,13.54,17.64,,47.59359,-54.27349
2019-02-20 21:10:00+00:00,328.0,328.0,12.57,14.83,,47.59359,-54.27349
2019-02-20 21:20:00+00:00,331.0,325.0,12.93,17.9,,47.59359,-54.27349
2019-02-20 21:30:00+00:00,339.0,332.0,13.52,16.64,,47.59359,-54.27349
2019-02-20 21:40:00+00:00,336.0,337.0,10.16,12.19,,47.59359,-54.27349
2019-02-20 21:50:00+00:00,329.0,314.0,10.94,13.68,,47.59359,-54.27349
2019-02-20 22:00:00+00:00,332.0,326.0,9.53,12.32,,47.59359,-54.27349
2019-02-20 22:10:00+00:00,341.0,342.0,10.07,11.23,,47.59359,-54.27349
2019-02-20 22:20:00+00:00,320.0,317.0,11.33,12.79,,47.59359,-54.27349
2019-02-20 22:30:00+00:00,336.0,334.0,10.77,12.79,,47.59359,-54.27349
2019-02-20 22:40:00+00:00,350.0,350.0,9.93,13.01,,47.59359,-54.27349
2019-02-20 22:50:00+00:00,336.0,333.0,9.42,11.53,,47.59359,-54.27349
2019-02-20 23:00:00+00:00,328.0,319.0,11.2,13.79,,47.59359,-54.27349
2019-02-20 23:10:00+00:00,331.0,323.0,10.54,12.68,,47.59359,-54.27349
2019-02-20 23:20:00+00:00,322.0,327.0,12.83,15.54,,47.59359,-54.27349
2019-02-20 23:30:00+00:00,335.0,323.0,11.17,12.96,,47.59359,-54.27349
2019-02-20 23:40:00+00:00,330.0,322.0,10.7,12.91,,47.59359,-54.27349
2019-02-20 23:50:00+00:00,334.0,311.0,8.06,11.68,,47.59359,-54.27349
